timestamp,surface_pressure_avg,surface_temp_avg,battery_voltage,lat,long
2018-12-28 00:00:00+00:00,232.0731,2.4,12.97,47.84626,-54.09684
2018-12-28 00:10:00+00:00,231.9964,2.4,12.89,47.84626,-54.09684
2018-12-28 00:20:00+00:00,235.5547,2.4,12.97,47.84626,-54.09684
2018-12-28 00:30:00+00:00,239.6664,2.4,12.97,47.84626,-54.09684
2018-12-28 00:40:00+00:00,242.2381,2.4,13.05,47.84626,-54.09684
2018-12-28 00:50:00+00:00,247.0047,2.4,13.05,47.84626,-54.09684
2018-12-28 01:00:00+00:00,253.7465,2.49,12.97,47.84626,-54.09684
2018-12-28 01:10:00+00:00,259.4214,2.56,12.89,47.84626,-54.09684
2018-12-28 01:20:00+00:00,265.8264,2.59,12.97,47.84626,-54.09684
2018-12-28 01:30:00+00:00,272.3348,2.6,12.97,47.84626,-54.09684
2018-12-28 01:40:00+00:00,278.0781,1.74,12.97,47.84626,-54.09684
2018-12-28 01:50:00+00:00,282.8163,2.5,12.97,47.84626,-54.09684
2018-12-28 02:00:00+00:00,290.7364,2.5,12.89,47.84626,-54.09684
2018-12-28 02:10:00+00:00,299.1381,2.5,12.81,47.84626,-54.09684
2018-12-28 02:20:00+00:00,305.1697,2.53,12.97,47.84626,-54.09684
2018-12-28 02:30:00+00:00,308.6998,2.58,12.97,47.84626,-54.09684
2018-12-28 02:40:00+00:00,311.863,2.63,12.97,47.84626,-54.09684
2018-12-28 02:50:00+00:00,319.063,2.7,12.97,47.84626,-54.09684
2018-12-28 03:00:00+00:00,323.9713,2.7,12.89,47.84626,-54.09684
2018-12-28 03:10:00+00:00,327.423,2.72,12.81,47.84626,-54.09684
2018-12-28 03:20:00+00:00,331.8464,2.72,12.89,47.84626,-54.09684
2018-12-28 03:30:00+00:00,338.0746,2.7,12.89,47.84626,-54.09684
2018-12-28 03:40:00+00:00,341.0413,2.5,12.97,47.84626,-54.09684
2018-12-28 03:50:00+00:00,342.4363,2.2,12.97,47.84626,-54.09684
2018-12-28 04:00:00+00:00,345.878,2.21,12.89,47.84626,-54.09684
2018-12-28 04:10:00+00:00,348.6329,2.36,12.81,47.84626,-54.09684
2018-12-28 04:20:00+00:00,346.9147,2.4,12.89,47.84626,-54.09684
2018-12-28 04:30:00+00:00,344.048,2.44,12.89,47.84626,-54.09684
2018-12-28 04:40:00+00:00,342.7829,2.54,12.89,47.84626,-54.09684
2018-12-28 04:50:00+00:00,343.683,2.59,12.97,47.84626,-54.09684
2018-12-28 05:00:00+00:00,340.6248,2.5,12.81,47.84626,-54.09684
2018-12-28 05:10:00+00:00,336.0047,2.47,12.73,47.84626,-54.09684
2018-12-28 05:20:00+00:00,332.993,2.42,12.89,47.84626,-54.09684
2018-12-28 05:30:00+00:00,330.838,2.4,12.89,47.84626,-54.09684
2018-12-28 05:40:00+00:00,322.3179,2.4,12.89,47.84626,-54.09684
2018-12-28 05:50:00+00:00,314.303,2.45,12.89,47.84626,-54.09684
2018-12-28 06:00:00+00:00,307.8313,2.05,12.81,47.84626,-54.09684
2018-12-28 06:10:00+00:00,301.0064,1.7,12.73,47.84626,-54.09684
2018-12-28 06:20:00+00:00,291.8264,1.8,12.81,47.84626,-54.09684
2018-12-28 06:30:00+00:00,283.6431,2.31,12.81,47.84626,-54.09684
2018-12-28 06:40:00+00:00,273.6147,2.3,12.89,47.84626,-54.09684
2018-12-28 06:50:00+00:00,262.5414,2.34,12.89,47.84626,-54.09684
2018-12-28 07:00:00+00:00,252.9914,2.37,12.81,47.84626,-54.09684
2018-12-28 07:10:00+00:00,245.2297,2.3,12.73,47.84626,-54.09684
2018-12-28 07:20:00+00:00,237.2081,2.3,12.81,47.84626,-54.09684
2018-12-28 07:30:00+00:00,229.8248,2.46,12.81,47.84626,-54.09684
2018-12-28 07:40:00+00:00,223.3781,2.5,12.89,47.84626,-54.09684
2018-12-28 07:50:00+00:00,216.4031,2.4,12.89,47.84626,-54.09684
2018-12-28 08:00:00+00:00,209.1414,2.38,12.81,47.84626,-54.09684
2018-12-28 08:10:00+00:00,202.9948,2.3,12.73,47.84626,-54.09684
2018-12-28 08:20:00+00:00,200.1732,2.3,12.81,47.84626,-54.09684
2018-12-28 08:30:00+00:00,196.2098,2.39,12.81,47.84626,-54.09684
2018-12-28 08:40:00+00:00,191.5265,2.4,12.89,47.84626,-54.09684
2018-12-28 08:50:00+00:00,192.063,2.4,12.89,47.84626,-54.09684
2018-12-28 09:00:00+00:00,194.5031,2.4,12.73,47.84626,-54.09684
2018-12-28 09:10:00+00:00,194.6131,2.4,12.73,47.84626,-54.09684
2018-12-28 09:20:00+00:00,194.5831,2.4,12.81,47.84626,-54.09684
2018-12-28 09:30:00+00:00,198.5948,2.41,12.81,47.84626,-54.09684
2018-12-28 09:40:00+00:00,201.5947,2.45,12.81,47.84626,-54.09684
2018-12-28 09:50:00+00:00,201.6448,2.53,12.89,47.84626,-54.09684
2018-12-28 10:00:00+00:00,204.2915,2.67,12.73,47.84626,-54.09684
2018-12-28 10:10:00+00:00,207.9681,2.73,12.73,47.84626,-54.09684
2018-12-28 10:20:00+00:00,208.9231,2.78,12.81,47.84626,-54.09684
2018-12-28 10:30:00+00:00,211.3464,2.79,12.81,47.84626,-54.09684
2018-12-28 10:40:00+00:00,216.1148,2.78,12.81,47.84626,-54.09684
2018-12-28 10:50:00+00:00,220.5648,2.77,12.81,47.84626,-54.09684
2018-12-28 11:00:00+00:00,225.2198,2.77,12.73,47.84626,-54.09684
2018-12-28 11:10:00+00:00,231.5198,2.78,12.73,47.84626,-54.09684
2018-12-28 11:20:00+00:00,237.4248,2.79,12.81,47.84626,-54.09684
2018-12-28 11:30:00+00:00,238.9298,2.8,12.81,47.84626,-54.09684
2018-12-28 11:40:00+00:00,238.7014,2.79,12.81,47.84626,-54.09684
2018-12-28 11:50:00+00:00,240.3164,2.78,12.89,47.84626,-54.09684
2018-12-28 12:00:00+00:00,242.0931,2.76,12.97,47.84626,-54.09684
2018-12-28 12:10:00+00:00,242.5515,2.78,14.0,47.84626,-54.09684
2018-12-28 12:20:00+00:00,243.9048,2.8,16.23,47.84626,-54.09684
2018-12-28 12:30:00+00:00,246.9147,2.51,17.03,47.84626,-54.09684
2018-12-28 12:40:00+00:00,248.8148,2.3,17.27,47.84626,-54.09684
2018-12-28 12:50:00+00:00,252.6448,2.47,17.27,47.84626,-54.09684
2018-12-28 13:00:00+00:00,258.8014,2.79,16.87,47.84626,-54.09684
2018-12-28 13:10:00+00:00,266.0097,2.89,16.71,47.84626,-54.09684
2018-12-28 13:20:00+00:00,271.5497,2.9,17.03,47.84626,-54.09684
2018-12-28 13:30:00+00:00,279.0114,2.42,16.47,47.84626,-54.09684
2018-12-28 13:40:00+00:00,286.9964,3.0,16.31,47.84626,-54.09684
2018-12-28 13:50:00+00:00,294.5179,2.78,15.91,47.84626,-54.09684
2018-12-28 14:00:00+00:00,301.2814,2.4,15.44,47.84626,-54.09684
2018-12-28 14:10:00+00:00,308.838,2.28,15.51,47.84626,-54.09684
2018-12-28 14:20:00+00:00,315.238,2.26,15.6,47.84626,-54.09684
2018-12-28 14:30:00+00:00,323.498,2.2,15.51,47.84626,-54.09684
2018-12-28 14:40:00+00:00,335.7929,2.2,15.51,47.84626,-54.09684
2018-12-28 14:50:00+00:00,350.6613,2.24,15.44,47.84626,-54.09684
2018-12-28 15:00:00+00:00,357.4579,2.27,15.2,47.84626,-54.09684
2018-12-28 15:10:00+00:00,362.0679,2.4,15.27,47.84626,-54.09684
2018-12-28 15:20:00+00:00,366.6897,2.5,15.35,47.84626,-54.09684
2018-12-28 15:30:00+00:00,368.1678,2.5,15.27,47.84626,-54.09684
2018-12-28 15:40:00+00:00,368.3629,2.53,15.2,47.84626,-54.09684
2018-12-28 15:50:00+00:00,366.1812,2.55,15.2,47.84626,-54.09684
2018-12-28 16:00:00+00:00,368.4596,2.5,15.04,47.84626,-54.09684
2018-12-28 16:10:00+00:00,364.3562,2.5,14.88,47.84626,-54.09684
2018-12-28 16:20:00+00:00,359.0229,2.5,15.11,47.84626,-54.09684
2018-12-28 16:30:00+00:00,358.9379,2.56,15.11,47.84626,-54.09684
2018-12-28 16:40:00+00:00,361.1313,2.71,15.11,47.84626,-54.09684
2018-12-28 16:50:00+00:00,358.8496,2.88,15.04,47.84626,-54.09684
2018-12-28 17:00:00+00:00,355.0963,2.8,14.96,47.84626,-54.09684
2018-12-28 17:10:00+00:00,359.6795,2.9,14.96,47.84626,-54.09684
2018-12-28 17:20:00+00:00,360.7597,2.9,14.96,47.84626,-54.09684
2018-12-28 17:30:00+00:00,354.7813,2.8,14.96,47.84626,-54.09684
2018-12-28 17:40:00+00:00,353.4363,2.76,14.96,47.84626,-54.09684
2018-12-28 17:50:00+00:00,352.1029,2.8,14.96,47.84626,-54.09684
2018-12-28 18:00:00+00:00,341.4379,2.7,14.8,47.84626,-54.09684
2018-12-28 18:10:00+00:00,329.2796,2.69,14.8,47.84626,-54.09684
2018-12-28 18:20:00+00:00,322.9779,2.67,14.88,47.84626,-54.09684
2018-12-28 18:30:00+00:00,314.088,2.67,14.8,47.84626,-54.09684
2018-12-28 18:40:00+00:00,304.558,2.63,14.8,47.84626,-54.09684
2018-12-28 18:50:00+00:00,299.5364,2.6,14.72,47.84626,-54.09684
2018-12-28 19:00:00+00:00,298.5797,2.6,14.56,47.84626,-54.09684
2018-12-28 19:10:00+00:00,290.2447,2.6,14.32,47.84626,-54.09684
2018-12-28 19:20:00+00:00,281.9931,2.51,14.24,47.84626,-54.09684
2018-12-28 19:30:00+00:00,276.0598,2.59,14.16,47.84626,-54.09684
2018-12-28 19:40:00+00:00,269.868,2.5,14.08,47.84626,-54.09684
2018-12-28 19:50:00+00:00,260.3631,2.55,14.0,47.84626,-54.09684
2018-12-28 20:00:00+00:00,253.323,2.59,13.84,47.84626,-54.09684
2018-12-28 20:10:00+00:00,248.0664,2.6,13.68,47.84626,-54.09684
2018-12-28 20:20:00+00:00,238.3964,2.6,13.68,47.84626,-54.09684
2018-12-28 20:30:00+00:00,232.8032,2.68,13.6,47.84626,-54.09684
2018-12-28 20:40:00+00:00,230.1115,2.7,13.6,47.84626,-54.09684
2018-12-28 20:50:00+00:00,223.9514,2.71,13.53,47.84626,-54.09684
2018-12-28 21:00:00+00:00,217.2515,2.79,13.44,47.84626,-54.09684
2018-12-28 21:10:00+00:00,217.7081,2.8,13.29,47.84626,-54.09684
2018-12-28 21:20:00+00:00,216.5515,2.86,13.29,47.84626,-54.09684
2018-12-28 21:30:00+00:00,213.4532,2.9,13.29,47.84626,-54.09684
2018-12-28 21:40:00+00:00,211.7548,2.9,13.21,47.84626,-54.09684
2018-12-28 21:50:00+00:00,213.3864,2.9,13.21,47.84626,-54.09684
2018-12-28 22:00:00+00:00,214.8098,2.9,13.13,47.84626,-54.09684
2018-12-28 22:10:00+00:00,216.4798,2.9,12.97,47.84626,-54.09684
2018-12-28 22:20:00+00:00,213.3831,2.9,13.05,47.84626,-54.09684
2018-12-28 22:30:00+00:00,210.0648,2.9,13.05,47.84626,-54.09684
2018-12-28 22:40:00+00:00,213.8581,2.9,13.05,47.84626,-54.09684
2018-12-28 22:50:00+00:00,217.6698,2.9,13.05,47.84626,-54.09684
2018-12-28 23:00:00+00:00,220.7781,2.9,12.97,47.84626,-54.09684
2018-12-28 23:10:00+00:00,222.808,2.9,12.89,47.84626,-54.09684
2018-12-28 23:20:00+00:00,218.7715,2.9,12.97,47.84626,-54.09684
2018-12-28 23:30:00+00:00,220.0998,2.9,12.97,47.84626,-54.09684
2018-12-28 23:40:00+00:00,224.9048,2.8,13.05,47.84626,-54.09684
2018-12-28 23:50:00+00:00,224.6648,2.8,13.05,47.84626,-54.09684
